Погода в Щегловском

Россия / Кемеровская область (Кузбасс)     55°33′49″N   85°55′23″E
темп.,
°C
ветер,
м/с
пор.,
м/с
влажн.,
%
обл.,
%
осадки,
мм/ч
давл.,
гПа
погр.,
м
13 апреля, вт
вт1301:000зюз4992100 0.1 1025354
04:000з3899100 3.3 1025404
07:00+1сз3799100 3.9 1026378
10:00+2сз358846 0.0 1028633
13:00+3сз458263 0.1 1029818
16:00+4зсз577384 0.0 10291149
19:00+2зюз479370 0.1 1030301
22:00+1зюз3992100 0.1 1030272
14 апреля, ср
ср1401:00+1з51198100 0.3 1030520
04:00+1з4993100 0.1 1030517
07:000зюз51096100 0.1 1030476
10:00+1зюз61294100 0.1 1029566
13:00+1зюз71697100 1.4 1026675
16:00+3зюз71589100 2.2 1023951
19:00+4зюз71589100 2.4 1022851
22:00+3зюз51194100 0.1 1023505
15 апреля, чт
чт1501:00+2з3997100 0.3 1024274
04:00+2зюз2598100 0.0 1024142
07:00+2зюз1398100 0.0 102584
10:00+3юз2396100 0.0 1025184
13:00+4ююз3595100 0.0 1025333
16:00+4ююз4797100 0.0 1023391
19:00+3ююз3798100 0.0 1022329
22:00+3ююз3899100 0.0 1021310
16 апреля, пт
пт1601:00+3ююз3899100 0.1 1020247
04:00+2ю3109744 0.0 1018261
07:00+4юз41396100 0.0 1017415
10:00+7юз5128744 0.0 1016509
13:00+12юз7107540 0.0 1014973
16:00+14зюз7116479 0.1 10121547
19:00+13юз6127118 0.1 1011862
22:00+10зюз41083100 0.1 1011447
17 апреля, сб
сб1701:00+5св5892100 0.3 1012339
04:00+2св5991100 0.3 1011440
07:000св61290100 1.1 1011526
10:00−2св51191100 2.6 1011533
13:00−2св61288100 3.8 1010606
16:00−1св61190100 0.6 1010723
19:00−2св61186100 1.5 1010688
22:00−3св61285100 0.5 1011698